User: anonymous
Location: NJAA Observatory
(40.6819°N, 74.8979°W)
Time: 07:35:14
(UTC-04:00)
Language:

Cosmos 220 Rocket - Orbit

View from above orbital plane
View from above orbital plane
View from above satellite
View from above satellite

Ground track
Ground track

The orbit data is extracted from the following two-line orbital elements,

1 03230U 68040B   14245.12020382  .00000890  00000-0  10049-3 0  3347
2 03230 074.0363 120.4674 0031985 340.7665 019.2305 14.87918777483794
Epoch (UTC): 02 September 2014 02:53:05
Eccentricity: 0.0031985
inclination: 74.0363°
perigee height: 582 km
apogee height: 627 km
right ascension of ascending node: 120.4674°
argument of perigee: 340.7665°
revolutions per day: 14.87918777
mean anomaly at epoch: 19.2305°
orbit number at epoch: 48379

The dashed part of the orbit path shows where the satellite is in the earth's shadow,  

DLR